Location: Moscow
(55.7500°N, 37.5830°E)
Time: 09:30:46
(UTC+03:00)

Vanguard 1 Rocket - Pass Details

Date: 04 December 2021
Orbit: 651 x 4224 km, 34.3° (Epoch: 23 January)

Event Time Altitude Azimuth Distance (km) Brightness Sun altitude
Exits shadow 04:33:26 25° 205° (SSW) 4,005 10.3 -33.1°
Maximum altitude 04:40:05 34° 168° (SSE) 4,159 10.6 -32.2°
Drops below altitude 10° 04:58:25 10° 115° (ESE) 7,136 12.6 -29.6°
Sets 05:05:23 0° 108° (ESE) 8,401 13.4 -28.6°
